This is the latest recevied weather packets stored in our database for station/object KC5EZZ-2. If no packets are shown the sender has not sent any weather packets the latest 10 day(s).
| Time | Temp. | Humidity | Pressure | Rain* | Wind** | Luminosity | Snow |
|---|---|---|---|---|---|---|---|
| 1777871107 | 18.33° C | - | - | 0 mm | 2.24 m/s, 118° | - | - |
| 1777870807 | 18.89° C | - | - | 0 mm | 2.68 m/s, 136° | - | - |
| 1777870505 | 18.89° C | - | - | 0 mm | 2.68 m/s, 135° | - | - |
| 1777870205 | 18.33° C | - | - | 0 mm | 2.24 m/s, 127° | - | - |
| 1777869906 | 18.89° C | - | - | 0 mm | 2.24 m/s, 127° | - | - |
| 1777869603 | 18.89° C | - | - | 0 mm | 1.79 m/s, 139° | - | - |
| 1777869303 | 18.89° C | - | - | 0 mm | 1.79 m/s, 152° | - | - |
| 1777869004 | 18.89° C | - | - | 0 mm | 2.24 m/s, 146° | - | - |
| 1777868701 | 19.44° C | - | - | 0 mm | 1.79 m/s, 165° | - | - |
| 1777868402 | 19.44° C | - | - | 0 mm | 1.79 m/s, 159° | - | - |
| 1777868102 | 19.44° C | - | - | 0 mm | 1.79 m/s, 145° | - | - |
| 1777867800 | 19.44° C | - | - | 0 mm | 2.24 m/s, 150° | - | - |
| 1777867500 | 19.44° C | - | - | 0 mm | 3.13 m/s, 156° | - | - |
| 1777867201 | 19.44° C | - | - | 0 mm | 2.68 m/s, 153° | - | - |
| 1777866899 | 19.44° C | - | - | 0 mm | 3.58 m/s, 165° | - | - |
| 1777866599 | 19.44° C | - | - | 0 mm | 3.58 m/s, 146° | - | - |
| 1777866299 | 20° C | - | - | 0 mm | 3.58 m/s, 138° | - | - |
| 1777865997 | 19.44° C | - | - | 0 mm | 3.13 m/s, 135° | - | - |
| 1777865698 | 20° C | - | - | 0 mm | 3.13 m/s, 128° | - | - |
| 1777865398 | 19.44° C | - | - | 0 mm | 2.24 m/s, 197° | - | - |
| 1777865095 | 20° C | - | - | 0 mm | 2.68 m/s, 163° | - | - |
| 1777864796 | 20° C | - | - | 0 mm | 2.68 m/s, 145° | - | - |
| 1777864496 | 20.56° C | - | - | 0 mm | 3.13 m/s, 165° | - | - |
| 1777864194 | 20° C | - | - | 0 mm | 2.68 m/s, 174° | - | - |
| 1777863894 | 20° C | - | - | 0 mm | 2.68 m/s, 124° | - | - |
* Rain latest hour (hover to see other rain measurements)
** Current wind speed in m/s (hover to see current wind gust speed)